Location: Dana
(41.8364°N, 106.7042°W)
Time: 02:14:58
(UTC+00:00)

Altair - Pass Details

Date: 10 May 2026
Orbit: 1501 x 1682 km, 47.2° (Epoch: 6 June)

Event Time Altitude Azimuth Distance (km) Brightness Sun altitude
Rises 10:44:35 0° 179° (S) 4,806 9.8 -11.6°
Reaches altitude 10° 10:49:02 10° 162° (SSE) 3,856 9.4 -10.9°
Maximum altitude 10:55:00 18° 124° (ESE) 3,300 9.5 -10.0°
Drops below altitude 10° 11:01:02 10° 86° (E) 3,930 10.7 -9.1°
Sets 11:05:35 0° 69° (ENE) 4,934 12.1 -8.4°
